Cocoa Beach, FL

8:32 PM EST on February 22, 2018 (GMT -0500)
Cape Canaveral Air Station Skid Strip

Weather History for KXMR - May, 2014

Change the Weather History Date:

Monday, May 12, 2014

  Actual Average (KCOF) Record (KCOF)
Temperature  
Mean Temperature 78 °F -  
Max Temperature 84 °F 80 °F 95 °F (2003)
Min Temperature 72 °F 69 °F 66 °F (2000)
Cooling Degree Days 13    
Growing Degree Days 28 (Base 50)    
Moisture  
Dew Point 69 °F    
Average Humidity 75    
Maximum Humidity 94    
Minimum Humidity 57    
Precipitation  
Precipitation 0.00 in - - ()
Sea Level Pressure  
Sea Level Pressure 30.14 in    
Wind  
Wind Speed 7 mph (ESE)    
Max Wind Speed 13 mph    
Max Gust Speed 18 mph    
Visibility 10 miles    
Events      
Averages and records for this station are not official NWS values.
T = Trace of Precipitation, MM = Missing Value Source: NWS Daily Summary

Daily Weather History Graph

Daily Weather History Graph

Search for Another Location

Airport or City:

Trip Planner

Search our weather history database for the weather conditions in past years. The results will help you decide how hot, cold, wet, or windy it might be!

Date:

Astronomy

May. 12, 2014 Rise Set
Actual Time 6:33 AM EDT 8:04 PM EDT
Civil Twilight 6:08 AM EDT 8:29 PM EDT
Nautical Twilight 5:37 AM EDT 9:00 PM EDT
Astronomical Twilight 5:05 AM EDT 9:32 PM EDT
Moon 6:10 PM EDT (5/12) 4:59 AM EDT (5/12)
Length of Visible Light 14h 21m
Length of Day
13h 30m
Waxing Gibbous, 95% of the Moon is Illuminated
May 12
Waxing Gibbous
May 14
Full
May 21
Last Quarter
May 28
New
Jun 5
First Quarter

Hourly Weather History & Observations

Time (EDT) Temp. Heat Index Dew Point Humidity Pressure Visibility Wind Dir Wind Speed Gust Speed Precip Events Conditions
12:58 AM 75.0 °F - 69.3 °F 82% 30.14 in 10.0 mi SE 6.9 mph - N/A   Clear
1:58 AM 75.2 °F - 68.4 °F 79% 30.12 in 10.0 mi SE 8.1 mph - N/A   Clear
2:58 AM 73.6 °F - 67.8 °F 82% 30.11 in 10.0 mi SE 5.8 mph - N/A   Clear
3:58 AM 72.5 °F - 69.8 °F 91% 30.11 in 10.0 mi SE 3.5 mph - N/A   Clear
4:58 AM 73.8 °F - 72.0 °F 94% 30.10 in 10.0 mi ESE 4.6 mph - N/A   Clear
5:58 AM 73.8 °F - 71.6 °F 93% 30.11 in 10.0 mi ESE 6.9 mph - N/A   Clear
6:58 AM 73.6 °F - 71.4 °F 93% 30.13 in 10.0 mi ESE 4.6 mph - N/A   Clear
7:58 AM 76.5 °F - 70.5 °F 82% 30.15 in 10.0 mi ESE 5.8 mph - N/A   Clear
8:58 AM 78.3 °F - 68.7 °F 72% 30.16 in 10.0 mi ESE 9.2 mph - N/A   Clear
10:58 AM 81.1 °F 83.9 °F 67.8 °F 64% 30.18 in 10.0 mi SE 12.7 mph - N/A   Clear
11:58 AM 81.1 °F 83.4 °F 66.7 °F 61% 30.18 in 10.0 mi ESE 9.2 mph - N/A   Clear
12:29 PM 82.4 °F 85.4 °F 68.0 °F 62% 30.17 in 10.0 mi East 10.4 mph - N/A   Light Drizzle
12:39 PM 84.2 °F 87.3 °F 68.0 °F 58% 30.18 in 10.0 mi ESE 9.2 mph - N/A   Partly Cloudy
12:58 PM 83.1 °F 85.4 °F 66.6 °F 57% 30.19 in 10.0 mi East 9.2 mph 18.4 mph 0.00 in   Partly Cloudy
1:58 PM 83.3 °F 85.9 °F 66.9 °F 58% 30.17 in 10.0 mi East 9.2 mph - N/A   Scattered Clouds
2:58 PM 83.3 °F 86.2 °F 67.5 °F 59% 30.16 in 10.0 mi East 10.4 mph - N/A   Clear
3:58 PM 83.3 °F 86.6 °F 68.4 °F 61% 30.15 in 10.0 mi ESE 10.4 mph - N/A   Clear
4:58 PM 81.3 °F 84.3 °F 68.7 °F 65% 30.14 in 10.0 mi East 8.1 mph - N/A   Clear
5:58 PM 81.5 °F 84.6 °F 68.9 °F 65% 30.13 in 10.0 mi East 9.2 mph 17.3 mph N/A   Clear
6:58 PM 79.5 °F - 68.7 °F 69% 30.12 in 10.0 mi East 9.2 mph 17.3 mph N/A   Clear
7:58 PM 77.5 °F - 70.0 °F 77% 30.12 in 10.0 mi East 8.1 mph - N/A   Clear
8:33 PM 77.0 °F - 71.6 °F 83% 30.12 in 9.0 mi Variable 5.8 mph - N/A   Clear
8:38 PM 77.0 °F - 71.6 °F 83% 30.12 in 10.0 mi East 6.9 mph - N/A   Clear
8:58 PM 77.0 °F - 71.1 °F 82% 30.13 in 10.0 mi ESE 8.1 mph - N/A   Clear
9:58 PM 76.5 °F - 70.7 °F 82% 30.13 in 10.0 mi East 5.8 mph - N/A   Clear
10:58 PM 76.3 °F - 71.4 °F 85% 30.13 in 10.0 mi East 5.8 mph - N/A   Clear
11:58 PM 76.1 °F - 70.7 °F 83% 30.12 in 10.0 mi ESE 8.1 mph - N/A   Clear